Location: Smyrna_Hopewell
(35.6500°N, 81.0330°W)
Time: 16:02:45
(UTC-04:00)

Cosmos 2221 - Visible Passes

Search period start: 23 June 2018 00:00
Search period end: 03 July 2018 00:00
Orbit: 594 x 616 km, 82.5° (Epoch: 23 June)

Date Brightness Start Highest point End Pass type
(mag) Time Alt. Az. Time Alt. Az. Time Alt. Az.
23 Jun 4.8 00:29:44 10° NW 00:32:03 17° W 00:32:03 17° W visible
23 Jun 2.7 23:03:59 10° N 23:08:10 54° ENE 23:08:10 54° ENE visible
24 Jun 2.4 23:16:49 10° N 23:21:08 82° W 23:21:10 82° WSW visible
25 Jun 4.6 21:54:26 10° NE 21:56:11 12° ENE 21:57:20 11° E visible
25 Jun 3.2 23:29:53 10° NNW 23:33:59 44° W 23:34:11 44° WSW visible
26 Jun 4.0 22:06:01 10° NNE 22:09:17 21° ENE 22:10:22 19° E visible
26 Jun 4.2 23:43:14 10° NW 23:46:46 25° W 23:47:14 25° W visible
27 Jun 3.3 22:18:20 10° NNE 22:22:18 35° E 22:23:25 30° ESE visible
27 Jun 4.9 23:57:07 10° NW 23:59:29 15° W 00:00:18 14° W visible
28 Jun 2.5 22:30:59 10° N 22:35:16 64° E 22:36:30 42° SE visible
29 Jun 2.6 22:43:52 10° NNW 22:48:09 70° W 22:49:36 39° SSW visible
30 Jun 4.4 21:20:58 10° NE 21:23:15 14° ENE 21:25:31 10° ESE visible
30 Jun 3.7 22:57:00 10° NNW 23:00:59 38° W 23:02:44 26° SW visible
01 Jul 3.8 21:32:51 10° NNE 21:36:20 24° ENE 21:39:00 14° ESE visible
01 Jul 4.6 23:10:27 10° NW 23:13:44 22° W 23:15:53 15° SW visible
02 Jul 3.0 21:45:16 10° N 21:49:20 41° E 21:52:11 18° SE visible
02 Jul 5.2 23:24:37 10° WNW 23:26:27 13° W 23:28:16 10° WSW visible
